GW1554 Weather Reports


Display with metric or nautical units.
time (UTC)temp
F
wind
direction
speed
MPH
gust
MPH
rain 1hr
in
rain 24hr
in
rain mn
in
humidity
%
barometer
mb
20260905014533 70 39 0.0 2.0 0.00 0.00 0.00 85 1017.7
20260905013043 70 21 0.0 2.0 0.00 0.00 0.00 84 1017.9
20260905011548 71 354 0.0 5.0 0.00 0.00 0.00 83 1017.9
20260905010028 71 25 1.0 5.0 0.00 0.00 0.00 83 1018.1
20260905004531 71 1 1.0 3.0 0.00 0.00 0.00 83 1018.1
20260905003030 71 357 1.0 3.0 0.00 0.00 0.00 84 1018.2
20260905001523 71 1 0.0 3.0 0.00 0.00 0.00 84 1018.3
20260905000021 71 351 1.0 3.0 0.00 0.00 0.00 84 1018.4
20260904234520 71 327 2.0 4.0 0.00 0.00 0.00 84 1018.6
20260904233019 71 340 0.0 3.0 0.00 0.00 0.00 85 1018.7
20260904231518 71 360 1.0 3.0 0.00 0.00 0.00 87 1018.7
20260904230017 71 336 0.0 3.0 0.00 0.00 0.00 86 1018.6
20260904224514 71 20 1.0 3.0 0.00 0.00 0.00 84 1018.7
20260904223014 71 327 0.0 2.0 0.00 0.00 0.00 85 1018.8
20260904221512 72 338 0.0 1.0 0.00 0.00 0.00 85 1018.9
20260904220012 72 345 0.0 4.0 0.00 0.00 0.00 84 1018.8
20260904214509 72 322 0.0 3.0 0.00 0.00 0.00 84 1018.8
20260904213013 72 323 0.0 3.0 0.00 0.00 0.00 86 1018.9
20260904211509 72 346 0.0 1.0 0.00 0.00 0.00 86 1018.9
20260904210011 72 25 0.0 0.0 0.00 0.00 0.00 86 1019.0
20260904204507 72 27 0.0 0.0 0.00 0.00 0.00 87 1019.1
20260904203013 72 27 0.0 0.0 0.00 0.00 0.00 87 1019.2
20260904201506 72 20 0.0 0.0 0.00 0.00 0.00 87 1019.3
20260904200005 72 20 0.0 0.0 0.00 0.00 0.00 87 1019.3
20260904194506 73 20 0.0 0.0 0.00 0.00 0.00 87 1019.2
20260904193004 73 20 0.0 0.0 0.00 0.00 0.00 86 1019.1
20260904191504 74 23 0.0 1.0 0.00 0.00 0.00 87 1019.0
20260904190005 74 19 0.0 2.0 0.00 0.00 0.00 86 1018.9
20260904184502 74 19 0.0 4.0 0.00 0.00 0.00 85 1018.7
20260904183000 75 347 1.0 3.0 0.00 0.00 0.00 84 1018.7
20260904181503 75 214 0.0 1.0 0.00 0.00 0.00 84 1018.5
20260904180100 76 214 0.0 2.0 0.00 0.00 0.00 83 1018.6
20260904174602 77 227 0.0 2.0 0.00 0.00 0.00 80 1018.5
20260904173057 79 150 0.0 1.0 0.00 0.00 0.00 77 1018.4
20260904171613 80 143 0.0 4.0 0.00 0.00 0.00 76 1018.4
20260904170056 82 98 0.0 4.0 0.00 0.00 0.00 73 1018.5
20260904164554 82 119 0.0 3.0 0.00 0.00 0.00 71 1018.7
20260904163053 82 233 0.0 5.0 0.00 0.00 0.00 71 1018.6
20260904161553 83 205 1.0 6.0 0.00 0.00 0.00 71 1018.7
20260904160051 82 230 2.0 6.0 0.00 0.00 0.00 73 1018.8
20260904154554 82 197 2.0 5.0 0.00 0.00 0.00 74 1018.9
20260904153051 82 160 1.0 7.0 0.00 0.00 0.00 76 1019.1
20260904151548 83 203 3.0 7.0 0.00 0.00 0.00 76 1019.1
20260904150048 83 87 4.0 9.0 0.00 0.00 0.00 74 1019.3
20260904144549 84 233 2.0 7.0 0.00 0.00 0.00 75 1019.2
20260904143050 83 113 4.0 7.0 0.00 0.00 0.00 76 1019.2
20260904141550 84 219 2.0 7.0 0.00 0.00 0.00 75 1019.3
20260904140047 83 218 3.0 7.0 0.00 0.00 0.00 75 1019.5
20260904134549 84 216 3.0 7.0 0.00 0.00 0.00 73 1019.6
20260904133046 84 193 3.0 7.0 0.00 0.00 0.00 73 1019.5
20260904131545 83 146 4.0 9.0 0.00 0.00 0.00 73 1019.7
20260904130044 84 122 2.0 7.0 0.00 0.00 0.00 72 1019.7
20260904124543 84 227 2.0 8.0 0.00 0.00 0.00 72 1019.7
20260904123042 84 108 3.0 9.0 0.00 0.00 0.00 72 1019.9
20260904121542 84 255 1.0 5.0 0.00 0.00 0.00 73 1020.0
20260904120047 85 164 2.0 8.0 0.00 0.00 0.00 72 1019.9
20260904114540 85 51 1.0 8.0 0.00 0.00 0.00 74 1020.0
20260904113043 84 234 3.0 8.0 0.00 0.00 0.00 75 1020.1
20260904111538 84 110 3.0 8.0 0.00 0.00 0.00 75 1020.0
20260904110038 83 11 2.0 8.0 0.00 0.00 0.00 77 1020.2
20260904104549 82 69 4.0 9.0 0.00 0.00 0.00 77 1020.1
20260904103036 83 161 5.0 9.0 0.00 0.00 0.00 76 1020.3
20260904101535 84 129 2.0 8.0 0.00 0.00 0.00 73 1020.3
20260904100038 85 141 2.0 9.0 0.00 0.00 0.00 72 1020.4
20260904094535 86 177 1.0 6.0 0.00 0.00 0.00 68 1020.5
20260904093031 86 289 2.0 6.0 0.00 0.00 0.00 63 1020.5
20260904091527 85 150 2.0 6.0 0.00 0.00 0.00 60 1020.3
20260904090025 84 115 1.0 6.0 0.00 0.00 0.00 61 1020.2
20260904084532 84 52 1.0 5.0 0.00 0.00 0.00 61 1020.1
20260904083021 83 117 2.0 5.0 0.00 0.00 0.00 62 1020.0
20260904081519 84 62 0.0 3.0 0.00 0.00 0.00 61 1019.8
20260904080019 84 152 0.0 2.0 0.00 0.00 0.00 62 1019.9
20260904074519 84 207 0.0 2.0 0.00 0.00 0.00 62 1019.8
20260904073014 83 127 0.0 1.0 0.00 0.00 0.00 63 1019.7
20260904071511 81 71 0.0 2.0 0.00 0.00 0.00 67 1019.7
20260904070015 80 86 0.0 2.0 0.00 0.00 0.00 69 1019.8
20260904064510 79 25 0.0 1.0 0.00 0.00 0.00 71 1019.7
20260904063101 77 25 1.0 2.0 0.00 0.00 0.00 72 1019.7
20260904061558 76 3 1.0 2.0 0.00 0.00 0.00 72 1019.6
20260904060058 75 15 1.0 3.0 0.00 0.00 0.00 73 1019.7
20260904054602 74 345 0.0 5.0 0.00 0.00 0.00 74 1019.6
20260904053103 73 315 2.0 6.0 0.00 0.00 0.00 74 1019.5
20260904051555 72 347 2.0 5.0 0.00 0.00 0.00 75 1019.5
20260904050054 73 344 1.0 6.0 0.00 0.00 0.00 74 1019.3
20260904044553 73 321 2.0 5.0 0.00 0.00 0.00 74 1019.4
20260904043104 73 294 2.0 7.0 0.00 0.00 0.00 73 1019.2
20260904041549 73 323 3.0 7.0 0.00 0.00 0.00 72 1019.2
20260904040049 73 1 2.0 4.0 0.00 0.00 0.00 71 1019.2
20260904034548 73 315 2.0 4.0 0.00 0.00 0.00 72 1019.3
20260904033048 74 339 1.0 4.0 0.00 0.00 0.00 73 1019.4
20260904031546 74 337 1.0 7.0 0.00 0.00 0.00 71 1019.3
20260904030046 73 338 2.0 7.0 0.00 0.00 0.00 71 1019.3
20260904024543 74 347 3.0 7.0 0.00 0.00 0.00 71 1019.4
20260904023044 74 313 0.0 4.0 0.00 0.00 0.00 71 1019.3
20260904021550 74 335 2.0 6.0 0.00 0.00 0.00 70 1019.0
20260904020041 74 309 1.0 7.0 0.00 0.00 0.00 70 1019.1